Overview Statistics Trail Chart Weather Telemetry Raw packets
 

This is the latest recevied weather packets stored in our database for station/object KD7AWQ. If no packets are shown the sender has not sent any weather packets the latest 10 day(s).

<< 85 86 87 88 89 90 91 >>
Time Temp. Humidity Pressure Rain* Wind** Luminosity Snow
1787813290 29.44° C 22% 1188.9 hPa 0 mm - 0 W/m² -
1787812982 29.44° C 22% 1188.9 hPa 0 mm - 0 W/m² -
1787812676 29.44° C 22% 1189.1 hPa 0 mm - 0 W/m² -
1787812371 29.44° C 22% 1188.9 hPa 0 mm - 0 W/m² -
1787812066 29.44° C 22% 1189.1 hPa 0 mm - 0 W/m² -
1787811762 30° C 21% 1188.8 hPa 0 mm - 0 W/m² -
1787811461 30° C 21% 1188.9 hPa 0 mm - 0 W/m² -
1787811156 30.56° C 21% 1188.7 hPa 0 mm - 0 W/m² -
1787810851 31.11° C 20% 1188.7 hPa 0 mm - 0 W/m² -
1787810547 31.11° C 19% 1188.9 hPa 0 mm - 0 W/m² -
1787810245 31.11° C 19% 1188.9 hPa 0 mm - 0 W/m² -
1787809941 30.56° C 19% 1188.8 hPa 0 mm - 0 W/m² -
1787809635 31.11° C 20% 1188.8 hPa 0 mm - 0 W/m² -
1787809331 31.11° C 19% 1188.6 hPa 0 mm - 0 W/m² -
1787809027 31.67° C 19% 1188.4 hPa 0 mm - 0 W/m² -
1787808728 31.67° C 18% 1188.7 hPa 0 mm - 0 W/m² -
1787808422 31.67° C 18% 1188.4 hPa 0 mm - 0 W/m² -
1787808121 31.67° C 18% 1188.4 hPa 0 mm - 0 W/m² -
1787807820 31.67° C 19% 1188.2 hPa 0 mm - 0 W/m² -
1787807515 31.67° C 19% 1188.7 hPa 0 mm - 0 W/m² -
1787807212 31.67° C 19% 1188.7 hPa 0 mm - 0 W/m² -
1787806907 31.11° C 19% 1188.7 hPa 0 mm - 0 W/m² -
1787806605 31.11° C 20% 1188.6 hPa 0 mm - 0 W/m² -
1787806304 31.11° C 20% 1188.6 hPa 0 mm - 0 W/m² -
1787805999 31.11° C 19% 1188.4 hPa 0 mm - 0 W/m² -

* Rain latest hour (hover to see other rain measurements)
** Current wind speed in m/s (hover to see current wind gust speed)